495  
FPUS83 KFGF 260031  
OPUFGF  
PRAIRIE TO PINES WEATHER ROUNDUP  
NATIONAL WEATHER SERVICE EASTERN NORTH DAKOTA/GRAND FORKS ND  
700 PM CDT TUE SEP 25 2018  
 
**SATELLITE DATA USED TO AUGMENT SKY COVER AT AUTOMATED STATIONS**  
***** WEATHER ACROSS EASTERN NORTH DAKOTA *****  
 
CITY SKY/WX TMP DP RH WIND PRES REMARKS  
GRAND FORKS FAIR 52 38 58 E3 29.95S  
6HR MIN TEMP: 46; 6HR MAX TEMP: 57;  
 
GRND FORKS AFB FAIR 51 37 59 CALM 29.95F  
GRND FORKS NWS NOT AVBL  
BUXTON N/A N/A N/A N/A CALM N/A  
DEVILS LAKE CLOUDY 53 36 52 NW5 29.97S  
6HR MIN TEMP: 49; 6HR MAX TEMP: 56;  
 
FARGO FAIR 52 37 56 N10 29.96R  
6HR MIN TEMP: 50; 6HR MAX TEMP: 59;  
 
WAHPETON ARPT MOCLDY 50 39 66 W6 29.98R  

 
 
***** WEATHER ACROSS CENTRAL AND WESTERN NORTH DAKOTA *****  
 
CITY SKY/WX TMP DP RH WIND PRES REMARKS  
JAMESTOWN MOCLDY 49 45 86 W12 29.99R  
6HR MIN TEMP: 48; 6HR MAX TEMP: 57; 6HR PCP: 0.04;  
 
BISMARCK FAIR 51 44 77 NW9 30.06S  
6HR MIN TEMP: 46; 6HR MAX TEMP: 56; 6HR PCP: 0.12;  
 
MINOT MOCLDY 54 36 50 W18G26 30.02R  
6HR MIN TEMP: 51; 6HR MAX TEMP: 60; 6HR PCP: 0.01;  
 
MINOT AFB FAIR 52 38 58 NW16 30.00R  
6HR MIN TEMP: 52; 6HR MAX TEMP: 57; 6HR PCP: TRACE;  
 
GARRISON N/A 50 41 71 NW13G25 30.04R  
6HR MIN TEMP: 45; 6HR MAX TEMP: 54; 6HR PCP: 0.07;  
 
WILLISTON FAIR 51 38 60 NW13 30.10S  
6HR MIN TEMP: 47; 6HR MAX TEMP: 58; 6HR PCP: 0.02;  
 
DICKINSON FAIR 50 34 54 NW15 30.11R  
6HR MIN TEMP: 46; 6HR MAX TEMP: 54; 6HR PCP: 0.03;  
 
HETTINGER FAIR 52 33 48 NW18G25 30.14R  
6HR MIN TEMP: 48; 6HR MAX TEMP: 57;  
 

 
 
***** OTHER OBSERVATIONS NORTHEAST NORTH DAKOTA *****  
 
CITY SKY/WX TMP DP RH WIND PRES REMARKS  
WALHALLA N/A 52 54 100 CALM 29.94R  
LANGDON MOCLDY 48 46 93 NW17G24 29.97R  
CAVALIER MOCLDY 52 N/A N/A W5 29.93S  
GRAFTON FAIR 50 37 62 S5 29.96S  
CANDO CLOUDY 46 46 100 N6 30.00R  
FORT TOTTEN N/A 55 33 44 NW2 29.95S  
ROLLA MOCLDY 46 43 87 NW7 29.99R  
RUGBY CLOUDY 50 41 71 NW8 29.99R  
***** THE ABOVE OBSERVATIONS ARE NON NWS ARE NOT QUALITY  
CONTROLLED AND MAY MIS-REPORT RAIN FOR SNOW...  

 
 
***** OTHER OBSERVATIONS SOUTHEAST NORTH DAKOTA *****  
 
CITY SKY/WX TMP DP RH WIND PRES REMARKS  
COOPERSTOWN FAIR 50 39 66 NW5 29.99R  
VALLEY CITY MOCLDY 50 45 81 W14 30.00R  
OAKES MOCLDY 48 48 100 W6 30.01S  
GWINNER N/A 48 48 100 SW6 30.00R  
SHEYENNE NWR N/A 49 46 90 W6 29.95S  
BUFFALO N/A 51 26 39 W5 N/A  
WYNDMERE NOT AVBL  
***** THE ABOVE OBSERVATIONS ARE NON NWS ARE NOT QUALITY  
CONTROLLED AND MAY MIS-REPORT RAIN FOR SNOW...  

 
 
***** WEATHER ACROSS NORTHERN MINNESOTA *****  
 
CITY SKY/WX TMP DP RH WIND PRES REMARKS  
FLAG ISLAND FAIR 48 39 71 W8 29.90S  
WARROAD FAIR 46 39 76 W3 29.93S  
ROSEAU FAIR 46 39 76 W3 29.94R  
HALLOCK FAIR 50 39 66 SE3 29.94S  
THF RVR FALLS FAIR 48 36 63 W6 29.97R  
6HR MIN TEMP: 45; 6HR MAX TEMP: 50;  
 
HALSTAD N/A 48 36 61 NE5 N/A  
FOSSTON FAIR 43 32 65 W3 29.98R  
BAUDETTE FAIR 45 41 86 W6 29.92S  
6HR MIN TEMP: 45; 6HR MAX TEMP: 49; 6HR PCP: 0.01;  
 
WASKISH CLOUDY 46 39 76 W8 29.94R  
CROOKSTON FAIR 48 37 66 CALM 29.98R  

 
***** WEATHER ACROSS CENTRAL AND WEST MINNESOTA *****  
 
CITY SKY/WX TMP DP RH WIND PRES REMARKS  
BEMIDJI CLOUDY 44 35 70 W9 29.96R  
6HR MIN TEMP: 45; 6HR MAX TEMP: 48;  
 
PARK RAPIDS FAIR 48 39 71 NW9 29.94R  
6HR MIN TEMP: 48; 6HR MAX TEMP: 51; 6HR PCP: TRACE;  
 
WADENA FAIR 46 39 76 CALM 29.95S  
DETROIT LAKES FAIR 46 37 71 NW8 29.98R  
MOORHEAD FAIR 50 36 57 N5 29.98R  
FERGUS FALLS FAIR 48 39 71 W6 29.98R  
ELBOW LAKE FAIR 48 40 75 SW5 29.98R  
6HR MIN TEMP: 47; 6HR MAX TEMP: 55; 6HR PCP: 0.01;  
 
MORRIS MN FAIR 50 39 66 W5 29.99R  
STAPLES FAIR 46 39 76 CALM 29.96S  
WHEATON MOCLDY 54 43 66 W3 30.00R  

 
***** WEATHER ELSEWHERE ACROSS MINNESOTA *****  
 
CITY SKY/WX TMP DP RH WIND PRES REMARKS  
DULUTH LGT RAIN 47 43 86 NW8 29.90R  
6HR MIN TEMP: 47; 6HR MAX TEMP: 50; 6HR PCP: 0.03;  
 
INTRNTL FALLS MOCLDY 45 42 89 W3 29.92R  
6HR MIN TEMP: 45; 6HR MAX TEMP: 49; 6HR PCP: TRACE;  
 
ELY LGT RAIN 45 43 93 CALM 29.89S  
CLOQUET LGT RAIN 46 43 87 CALM 29.93R  
BRAINERD CLOUDY 50 42 74 W8 29.96R  
6HR MIN TEMP: 49; 6HR MAX TEMP: 52; 6HR PCP: 0.03;  
 
HIBBING CLOUDY 44 41 89 W7 29.91R  
6HR MIN TEMP: 44; 6HR MAX TEMP: 49; 6HR PCP: 0.05;  
 
ALEXANDRIA FAIR 53 41 63 NW7 29.98S  
6HR MIN TEMP: 49; 6HR MAX TEMP: 57; 6HR PCP: 0.03;  
 
SAINT CLOUD MOCLDY 50 42 74 NW5 29.98R  
6HR MIN TEMP: 50; 6HR MAX TEMP: 53; 6HR PCP: TRACE;  
 
MINNEAPOLIS MOCLDY 54 47 77 W7 29.98R  
6HR MIN TEMP: 51; 6HR MAX TEMP: 55; 6HR PCP: TRACE;  
 

 
 
***** WEATHER ACROSS SOUTH DAKOTA *****  
 
CITY SKY/WX TMP DP RH WIND PRES REMARKS  
SIOUX FALLS FAIR 58 46 64 NW7 30.05R  
6HR MIN TEMP: 56; 6HR MAX TEMP: 63;  
 
BROOKINGS MOCLDY 53 44 71 W9 30.03R  
WATERTOWN CLOUDY 50 47 89 W8 30.01R  
6HR MIN TEMP: 50; 6HR MAX TEMP: 55; 6HR PCP: 0.07;  
 
HURON MOCLDY 56 48 74 NW3 30.04R  
6HR MIN TEMP: 53; 6HR MAX TEMP: 64; 6HR PCP: 0.02;  
 
SISSETON N/A 49 47 93 W9 30.00R  
ABERDEEN MOCLDY 53 45 74 NW17G24 30.03R  
6HR MIN TEMP: 51; 6HR MAX TEMP: 60; 6HR PCP: 0.11;  
 
MITCHELL FAIR 55 45 68 NW6 30.06R  
PIERRE FAIR 57 38 48 NW24 30.09R  
6HR MIN TEMP: 56; 6HR MAX TEMP: 65; 6HR PCP: 0.01;  
 
MOBRIDGE LGT RAIN 51 44 77 NW17G31 30.07R  
RAPID CITY CLOUDY 53 33 46 W21G30 30.20R  
6HR MIN TEMP: 53; 6HR MAX TEMP: 59;  
 

 
 
***** SOME WEATHER IN NEARBY STATES *****  
 
CITY SKY/WX TMP DP RH WIND PRES REMARKS  
GLASGOW MT MOCLDY 59 36 42 W18G24 30.13R  
6HR MIN TEMP: 52; 6HR MAX TEMP: 62; 6HR PCP: TRACE;  
 
GREAT FALLS MT FAIR 61 28 28 W5 30.17F  
6HR MIN TEMP: 53; 6HR MAX TEMP: 63;  
 
CHEYENNE WY FAIR 59 24 26 MISG 30.24R  
6HR MIN TEMP: 53; 6HR MAX TEMP: 61;  
 
SCOTTSBLUFF NE FAIR 63 30 28 N10 30.20R  
6HR MIN TEMP: 58; 6HR MAX TEMP: 67;  
 
OMAHA NE FAIR 60 47 61 NW9 30.08R  
6HR MIN TEMP: 58; 6HR MAX TEMP: 66;  
 
DES MOINES IA CLOUDY 57 53 86 N12G20 30.04R  
6HR MIN TEMP: 56; 6HR MAX TEMP: 60; 6HR PCP: 0.04;  
 
DAVENPORT IA CLOUDY 63 59 87 NW15G24 29.93R  
6HR MIN TEMP: 63; 6HR MAX TEMP: 81; 6HR PCP: 0.13;  
 
CHICAGO IL LGT RAIN 67 63 87 S8 29.80F  
6HR MIN TEMP: 67; 6HR MAX TEMP: 84; 6HR PCP: 0.23;  
 
EAU CLAIRE WI CLOUDY 50 47 89 NW7 29.93R  
6HR MIN TEMP: 49; 6HR MAX TEMP: 57; 6HR PCP: TRACE;  
 
LA CROSSE WI CLOUDY N/A N/A N/A NW23G30 29.95R  
6HR PCP: 0.27;  
 

 
 
***** SOME NATIONAL WEATHER *****  
 
CITY SKY/WX TMP DP RH WIND PRES REMA  
 
CLICK HERE TO GO TO PREVIOUS BULLETINS.

The Nexlab ND Page
The Nexlab MN Page Main Text Page